ES'HAIL 2

Last updated on Tue Jul 08 2025 00:02:47 GMT+0000 (Coordinated Universal Time)

1 43700U 18090A 25188.56862725 .00000161 00000+0 00000+0 0 9993 2 43700 0.0147 309.9300 0002555 191.4000 14.9405 1.00272504 24228
UTC large
Height (km)
Speed (km/s)
/
Latitude / Longitude
Inclination (degrees)
Orbital Period (minutes)
Azimuth
Elevation
Range (km)
Doppler Factor

Next 0 passes for location: London (51.5072 / 0.1276)

Sorry there are no passes over London.